Regional Weather Roundup
Issued by NWS Wakefield, VA

Home | Current Version | Previous Version | Graphics & Text | Print | Product List | Glossary On
Versions: 1 2 3 4 5 6 7 8 9 10 11 12 13 14 15 16 17 18 19 20 21 22 23 24 25 26 27 28 29 30 31 32 33 34 35 36 37 38 39 40 41 42 43 44 45 46 47 48 49 50
000
ASUS41 KAKQ 102314
RWRAKQ

REGIONAL WEATHER ROUNDUP
NATIONAL WEATHER SERVICE WAKEFIELD VA
600 PM EST WED FEB 10 2016

Note: "fair" indicates few or no clouds below 12,000 feet with no
significant weather and/or obstructions to visibility. * = Denotes
station may not report precipitation (e.g., rain,snow,etc.),
thunder or fog.

VAZ042-051-052>054-056-110000-
NORTHERN VIRGINIA

CITY           SKY/WX    TMP DP  RH WIND       PRES   REMARKS
WASH NATIONAL  CLOUDY    32  12  43 NW14G26   29.87R WCI  22
DULLES         CLOUDY    27  10  49 NW20G26   29.88R WCI  13
FORT BELVOIR   CLOUDY    31  13  47 NW16G24   29.87R WCI  20
QUANTICO       LGT SNOW  30  23  75 NW12G24   29.90R VSB 3/4 WCI  20
FREDERICKSBRG* CLOUDY    33  19  56 NW14G22   29.86R WCI  24
STAFFORD*      CLOUDY    32  16  52 W15       29.91R WCI  21
WARRENTON      FLURRIES  29  20  69 NW15G22   29.88R WCI  18
CULPEPER*      CLOUDY    29   9  43 NW12G18   29.89R WCI  19
MANASSAS*      CLOUDY    28  19  69 NW17G23   29.89R WCI  16
LEESBURG*      CLOUDY    28  18  64 NW21G30   29.89R WCI  15
WINCHESTER     CLOUDY    25  12  58 W13G23    29.88R WCI  13
FRONT ROYAL*   CLOUDY    25   9  50 W14G21    29.88R WCI  13
LURAY*         CLOUDY    23   9  54 NW5       29.88S
$$

VAZ048-049-060>072-079>083-110000-
CENTRAL AND SOUTH CENTRAL VIRGINIA

CITY           SKY/WX    TMP DP  RH WIND       PRES   REMARKS
RICHMOND       MOCLDY    35  13  40 W20G25    29.86R WCI  24
CHESTERFIELD*  CLOUDY    34   7  32 W15G22    29.89R WCI  24
PETERSBURG*    CLOUDY    35   5  27 W14G20    29.89R
HANOVER        CLOUDY    35  13  40 W13       29.87R
TAPPAHANNOCK*  CLOUDY    38  16  40 SW7       29.84R
QUINTON*       CLOUDY    36  13  39 W10G16    29.85R
CHARLOTTSVILLE CLOUDY    28   6  39 NW10G22   29.88R WCI  19
GORDONSVILLE*  CLOUDY    30   7  37 NW14G24   29.87R WCI  19
ORANGE*        CLOUDY    32   9  37 W12       29.89R WCI  23
LOUISA*        CLOUDY    32   9  37 W16       29.85R WCI  21
BUMPASS*       CLOUDY    32  11  40 W5        29.85R
FARMVILLE*     CLOUDY    30   6  36 W8        29.91R
CREWE*         FAIR      30   9  41 W9G18     29.90R
FORT PICKETT*  CLOUDY    30   8  39 W16G30    29.90R WCI  19
CHASE CITY*    MOCLDY    30   6  36 W12G22    29.92R WCI  20
CLARKSVILLE*   MOCLDY    30  10  43 W15G22    29.92R WCI  19
SOUTH HILL*    CLOUDY    32  11  41 W9G21     29.96R
LAWRENCEVILLE* CLOUDY    34  11  39 NW7G17    29.89R
EMPORIA*       CLOUDY    36  14  41 W10G17    29.91R
$$

VAZ088>098-110000-
SOUTHEAST VIRGINIA

CITY           SKY/WX    TMP DP  RH WIND       PRES   REMARKS
NORFOLK        MOCLDY    39  13  34 W8G17     29.84R
VIRGINIA BEACH MOCLDY    43  14  31 W10       29.84R
NORFOLK NAVAL  FAIR      40  14  34 W15G23    29.86R
WEST POINT*    CLOUDY    38  15  38 W22       29.85R
SALUDA*        CLOUDY    38  17  43 W3        29.82R
NEWPORT NEWS   FAIR      39  17  41 W15       29.84R
LANGLEY AFB    CLOUDY    38  16  41 W10       29.83R
FORT EUSTIS    CLOUDY    39  14  36 W10G21    29.83R
WILLIAMSBURG*  CLOUDY    41  18  38 W13G18    29.85R
HR EXEC AP*    MOCLDY    37  14  38 W7        29.87R
FRANKLIN*      CLOUDY    37  15  40 W9        29.88R
US460-WAKEFLD  CLOUDY    38  14  37 W9        29.86R
$$

VAZ020-022-025-037-045-110000-
WEST CENTRAL AND SOUTHWEST VIRGINIA

CITY           SKY/WX    TMP DP  RH WIND       PRES   REMARKS
STAUNTON*      MOCLDY    27   7  41 W6        29.89R
WAYNESBORO*    CLOUDY    23   3  42 W3        29.85S
HOT SPRINGS VA MOCLDY    11   3  70 W18G29    29.68R WCI  -7
LYNCHBURG      MOCLDY    24   5  44 W10G20    29.93R WCI  14
DANVILLE       CLOUDY    30   8  39 NW12G21   29.96R WCI  20
SOUTH BOSTON*  FAIR      30   6  36 W15G24    29.95R WCI  19
MARTINSVILLE   MOCLDY    24   5  44 NW3       29.98R
ROANOKE        MOCLDY    23   4  44 W12G21    29.94R WCI  12
BLACKSBURG     CLOUDY    19   8  63 W8        29.90R
DUBLIN*        CLOUDY    20   9  64 W18G26    29.90R WCI   4
MARION*        CLOUDY    18  10  69 W18G25    29.88R WCI   2
HILLSVILLE*    CLOUDY    17   9  71 W10G20    29.83R WCI   4
RICHLANDS*     LGT SNOW  15   6  66 NW8       29.88R
WISE*          CLOUDY    16   3  57 W8        29.92R
ABINGDON*      MOCLDY    21   6  52 NW8       29.94R
$$

MDZ021>025-VAZ099-100-110000-
SOUTHERN MARYLAND AND THE DELMARVA PENINSULA

CITY           SKY/WX    TMP DP  RH WIND       PRES   REMARKS
PATUXENT RIVER CLOUDY    35  19  52 W6        29.81R
BAY BRIDGE APT   N/A     34  14  44 NW12G17   29.83R
LEONARDTOWN    CLOUDY    36  19  51 W3        29.83R
DOVER          PTCLDY    33  19  56 W15       29.79R WCI  23
GEORGETOWN     CLOUDY    35  19  52 NW6       29.81R
EASTON         MOCLDY    32  19  59 N6        29.85R
CAMBRIDGE      PTCLDY    34  19  55 NW6       29.81R
SALISBURY      MOCLDY    34  21  59 NW5       29.81R
OCEAN CITY     MOCLDY    35  20  54 CALM      29.81R
WALLOPS ISLAND MOCLDY    35  21  56 CALM      29.83R
ACCOMACK*      CLOUDY    34  23  64 NE3       29.82R
$$

NCZ012>017-030>032-110000-
NORTH CENTRAL AND EASTERN NORTH CAROLINA

CITY           SKY/WX    TMP DP  RH WIND       PRES   REMARKS
ROANOKE RAPIDS CLOUDY    36  18  48 W10G20    29.90R
RALEIGH        MOCLDY    35  11  36 W10G22    29.94R
ELIZABETH CITY CLOUDY    38  19  46 W9        29.87R
AHOSKIE*       CLOUDY    37  17  45 CALM      29.89R
EDENTON*       CLOUDY    41  18  40 W12G18    29.89R
CURRITUCK*     CLOUDY    40  20  45 W8        29.86R
KILL DEVIL HLS PTCLDY    38  19  45 W7G17     29.86R
MANTEO         PTCLDY    38  20  48 NW9G17    29.88R
CAPE HATTERAS  PTCLDY    39  21  48 W8        29.89R
TARBORO*       CLOUDY    38  18  43 W10G17    29.92R
GOLDSBORO      CLOUDY    37  16  41 W15       29.92R
WASHINGTON     CLOUDY    37  18  45 W8        29.91R
GREENVILLE     MOCLDY    37  18  44 W6        29.93R
NEW BERN       CLOUDY    39  17  41 W12       29.93R
WILMINGTON     CLOUDY    39  18  42 W18G24    29.98R
$$

VAZ048-110000-
ELSEWHERE

CITY           SKY/WX    TMP DP  RH WIND       PRES   REMARKS
HARRISBURG PA  CLOUDY    30  14  51 NW14      29.80R WCI  19
BALTIMORE      MOCLDY    31  12  45 W17G25    29.83R WCI  19
ANNAPOLIS      MOCLDY    34  16  47 NW10      29.83R
ANDREWS AFB    MOCLDY    31  13  47 NW15      29.83R WCI  20
PHILADELPHIA   MOCLDY    33  14  45 W14       29.80R WCI  23
HENDERSON NC   PTCLDY    32   8  36 NW12G22   29.92R WCI  23
GREENSBORO     PTCLDY    28   5  37 W14G23    29.94R WCI  17
ROCKY MOUNT    CLOUDY    37  16  42 W9        29.92R
$$

VAZ100-110000-
MARINE

STATION/POSITION TIME  TEMP    WIND        PRES    WAVE   SWELL
                       AIR SEA DIR/SP/G            HT/PER HT/PER
                 (UTC) (F)     (DEG/KT/KT) (MB)    (FT/S) (FT/S)
BRANDYWINE LGT   2200   35     310/ 20/ 23   N/A
CAPE MAY NJ      2200   35 41  300/ 15/ 19   N/A
LEWES DE         2200   36 41  300/ 16/ 18   N/A
15NM E FENWICK I 2250   37 43              1009.1R   4/12
OCEAN-CITY-INLET 2200   37 41  330/ 10/ 12   N/A
WACHAPREAGUE VA  2200   38 44  240/  3/  4   N/A
GOOSES REEF MD   2300   36 39  330/ 10/ 12 1010.7R   1/ 2
COVE POINT MD    2200   36     330/  8/ 11   N/A
SOLOMONS ISLAND  2200   38 41  280/  5/  6   N/A
BISHOPS HEAD MD  2200   38 40  290/  9/ 11   N/A
PINEY POINT MD   2200          340/  8/  9   N/A
POTOMAC MD       2300   38 40  310/  8/ 10 1008.6R   1/ 2
CAMBRIDGE MD     2200   36 40  320/  7/  9   N/A
LEWISETTA VA     2200   38 41  290/  6/  8   N/A
RAPPAHANNOCK LGT 2200           CALM  /  2   N/A
STINGRAY PT      2300   39 42  280/ 10/ 12 1009.8R   1
YORK RVR RNG VA  2200   40     280/ 15/ 18   N/A
YORKTOWN VA      2200   40 43  270/ 11/ 14   N/A
JAMESTOWN VA     2300   38 44  270/ 16/ 21   N/A     1
DOMINION TERM VA 2200   40     290/ 15/ 17   N/A
KIPTOPEKE VA     2200      43  280/ 15/ 18   N/A
CHES BAY BRIDGE  2200   40 42  240/ 17/ 19   N/A
CAPE HENRY VA    2200   40     250/ 11/ 16   N/A
CHESAPEAKE LGHT  2200   40     270/ 12/ 14 1010.4R
WILLOUBY STN VA  2200   40     270/ 16/ 17   N/A
CAPE HENRY BUOY  2228      44                N/A     3/13   2/13
1ST LANDING BUOY 2300      42                N/A     2/ 3
CAPE CHARLES BUO 2226      43                N/A     3/12   3/12
OFFSHORE WE BUOY 2221      46                N/A     4/12   3/12
64NM E OF VA BCH 2250   40 49  260/ 14/ 19 1010.3R   5/ 7   3/ 7
DUCK PIER NC     2200   39     240/ 15/ 19   N/A
44100 DUCK FRF   2224      47                N/A     5/13   3/13
44056 DUCK FRF   2211      44                N/A     3/13   2/13
OREGON INLET NC  2200   40 44  270/ 13/ 19   N/A
HATTERAS NC      2200   40 49  270/ 11/ 15   N/A
DIAMOND SHLS NC  2250   43 72  290/ 17/ 23 1011.9R   5/13   3/13
$$



USA.gov is the U.S. government's official web portal to all federal, state and local government web resources and services.